| time (UTC) | temp C | wind direction | speed KPH | gust KPH | rain 1hr cm | rain 24hr cm | rain mn cm | humidity % | barometer mb |
| 20260507230512 | 18 | 65 | 3.2 | 12.9 | 0.00 | 0.00 | 0.00 | 31 | 1016.7 |
| 20260507230028 | 18 | 0 | 0.0 | 6.4 | 0.00 | 0.00 | 0.00 | 29 | 1016.7 |
| 20260507225511 | 18 | 138 | 0.0 | 6.4 | 0.00 | 0.00 | 0.00 | 29 | 1016.8 |
| 20260507225011 | 18 | 27 | 1.6 | 8.0 | 0.00 | 0.00 | 0.00 | 29 | 1016.9 |
| 20260507224532 | 18 | 51 | 1.6 | 8.0 | 0.00 | 0.00 | 0.00 | 30 | 1016.9 |
| 20260507224013 | 18 | 31 | 4.8 | 8.0 | 0.00 | 0.00 | 0.00 | 26 | 1016.7 |
| 20260507223509 | 19 | 0 | 0.0 | 8.0 | 0.00 | 0.00 | 0.00 | 29 | 1016.9 |
| 20260507223028 | 18 | 284 | 1.6 | 8.0 | 0.00 | 0.00 | 0.00 | 26 | 1017.0 |
| 20260507222511 | 18 | 31 | 1.6 | 6.4 | 0.00 | 0.00 | 0.00 | 26 | 1017.0 |
| 20260507222009 | 19 | 337 | 0.0 | 6.4 | 0.00 | 0.00 | 0.00 | 29 | 1017.1 |
| 20260507221535 | 19 | 261 | 0.0 | 8.0 | 0.00 | 0.00 | 0.00 | 28 | 1017.2 |
| 20260507221011 | 18 | 43 | 1.6 | 8.0 | 0.00 | 0.00 | 0.00 | 29 | 1017.2 |
| 20260507220510 | 18 | 13 | 1.6 | 14.5 | 0.00 | 0.00 | 0.00 | 28 | 1017.3 |
| 20260507220028 | 18 | 91 | 1.6 | 22.5 | 0.00 | 0.00 | 0.00 | 31 | 1017.3 |
| 20260507215511 | 18 | 65 | 8.0 | 22.5 | 0.00 | 0.00 | 0.00 | 29 | 1017.3 |
| 20260507215011 | 18 | 81 | 4.8 | 14.5 | 0.00 | 0.00 | 0.00 | 30 | 1017.4 |
| 20260507214531 | 19 | 79 | 3.2 | 12.9 | 0.00 | 0.00 | 0.00 | 28 | 1017.4 |
| 20260507214011 | 19 | 0 | 1.6 | 9.7 | 0.00 | 0.00 | 0.00 | 29 | 1017.3 |
| 20260507213509 | 18 | 295 | 3.2 | 9.7 | 0.00 | 0.00 | 0.00 | 31 | 1017.4 |
| 20260507213031 | 19 | 63 | 1.6 | 9.7 | 0.00 | 0.00 | 0.00 | 30 | 1017.4 |
| 20260507212511 | 18 | 279 | 3.2 | 11.3 | 0.00 | 0.00 | 0.00 | 32 | 1017.4 |
| 20260507212012 | 18 | 345 | 1.6 | 11.3 | 0.00 | 0.00 | 0.00 | 30 | 1017.6 |
| 20260507211528 | 18 | 34 | 3.2 | 11.3 | 0.00 | 0.00 | 0.00 | 29 | 1017.5 |
| 20260507211011 | 18 | 236 | 1.6 | 6.4 | 0.00 | 0.00 | 0.00 | 32 | 1017.7 |
| 20260507210511 | 18 | 53 | 3.2 | 12.9 | 0.00 | 0.00 | 0.00 | 32 | 1017.7 |
| 20260507210026 | 18 | 175 | 3.2 | 12.9 | 0.00 | 0.00 | 0.00 | 34 | 1017.8 |
| 20260507205512 | 18 | 86 | 3.2 | 9.7 | 0.00 | 0.00 | 0.00 | 35 | 1017.9 |
| 20260507205013 | 18 | 322 | 4.8 | 9.7 | 0.00 | 0.00 | 0.00 | 34 | 1017.9 |
| 20260507204526 | 18 | 294 | 4.8 | 9.7 | 0.00 | 0.00 | 0.00 | 33 | 1017.9 |
| 20260507204011 | 18 | 266 | 1.6 | 9.7 | 0.00 | 0.00 | 0.00 | 33 | 1017.9 |
| 20260507203516 | 18 | 108 | 4.8 | 9.7 | 0.00 | 0.00 | 0.00 | 33 | 1017.9 |
| 20260507203038 | 18 | 169 | 4.8 | 8.0 | 0.00 | 0.00 | 0.00 | 31 | 1018.0 |
| 20260507202513 | 18 | 64 | 1.6 | 12.9 | 0.00 | 0.00 | 0.00 | 33 | 1018.0 |
| 20260507202016 | 18 | 198 | 3.2 | 12.9 | 0.00 | 0.00 | 0.00 | 33 | 1017.9 |
| 20260507201529 | 18 | 79 | 3.2 | 16.1 | 0.00 | 0.00 | 0.00 | 34 | 1017.9 |
| 20260507201013 | 18 | 38 | 3.2 | 16.1 | 0.00 | 0.00 | 0.00 | 32 | 1017.9 |
| 20260507200513 | 18 | 59 | 4.8 | 11.3 | 0.00 | 0.00 | 0.00 | 30 | 1018.0 |
| 20260507200028 | 18 | 44 | 3.2 | 11.3 | 0.00 | 0.00 | 0.00 | 31 | 1017.8 |
| 20260507195516 | 18 | 288 | 3.2 | 11.3 | 0.00 | 0.00 | 0.00 | 34 | 1017.8 |
| 20260507195015 | 18 | 202 | 4.8 | 11.3 | 0.00 | 0.00 | 0.00 | 32 | 1017.7 |
| 20260507194529 | 17 | 288 | 4.8 | 17.7 | 0.00 | 0.00 | 0.00 | 33 | 1017.6 |
| 20260507194012 | 17 | 65 | 9.7 | 17.7 | 0.00 | 0.00 | 0.00 | 30 | 1017.6 |
| 20260507193512 | 17 | 50 | 4.8 | 14.5 | 0.00 | 0.00 | 0.00 | 34 | 1017.6 |
| 20260507193028 | 17 | 98 | 6.4 | 12.9 | 0.00 | 0.00 | 0.00 | 30 | 1017.7 |
| 20260507192509 | 17 | 18 | 6.4 | 12.9 | 0.00 | 0.00 | 0.00 | 31 | 1017.7 |
| 20260507192010 | 17 | 57 | 4.8 | 12.9 | 0.00 | 0.00 | 0.00 | 31 | 1017.7 |
| 20260507191528 | 17 | 273 | 3.2 | 11.3 | 0.00 | 0.00 | 0.00 | 33 | 1017.8 |
| 20260507191009 | 17 | 37 | 4.8 | 16.1 | 0.00 | 0.00 | 0.00 | 32 | 1017.7 |
| 20260507190512 | 17 | 79 | 1.6 | 16.1 | 0.00 | 0.00 | 0.00 | 30 | 1017.7 |
| 20260507190028 | 17 | 295 | 4.8 | 16.1 | 0.00 | 0.00 | 0.00 | 30 | 1017.8 |
| 20260507185510 | 17 | 1 | 3.2 | 11.3 | 0.00 | 0.00 | 0.00 | 32 | 1017.8 |
| 20260507185013 | 17 | 266 | 4.8 | 11.3 | 0.00 | 0.00 | 0.00 | 33 | 1017.9 |
| 20260507184529 | 17 | 281 | 3.2 | 12.9 | 0.00 | 0.00 | 0.00 | 32 | 1017.9 |
| 20260507184013 | 17 | 48 | 3.2 | 12.9 | 0.00 | 0.00 | 0.00 | 33 | 1018.2 |
| 20260507183515 | 17 | 308 | 1.6 | 12.9 | 0.00 | 0.00 | 0.00 | 37 | 1018.2 |
| 20260507183030 | 17 | 39 | 6.4 | 12.9 | 0.00 | 0.00 | 0.00 | 35 | 1018.1 |
| 20260507182513 | 16 | 314 | 4.8 | 11.3 | 0.00 | 0.00 | 0.00 | 36 | 1018.1 |
| 20260507182014 | 16 | 68 | 3.2 | 9.7 | 0.00 | 0.00 | 0.00 | 37 | 1018.3 |
| 20260507181532 | 16 | 23 | 1.6 | 9.7 | 0.00 | 0.00 | 0.00 | 40 | 1018.4 |
| 20260507181014 | 16 | 39 | 4.8 | 11.3 | 0.00 | 0.00 | 0.00 | 38 | 1018.2 |
| 20260507180512 | 16 | 48 | 4.8 | 11.3 | 0.00 | 0.00 | 0.00 | 38 | 1018.3 |
| 20260507180034 | 16 | 79 | 4.8 | 11.3 | 0.00 | 0.00 | 0.00 | 38 | 1018.3 |
| 20260507175514 | 15 | 40 | 1.6 | 9.7 | 0.00 | 0.00 | 0.00 | 38 | 1018.2 |
| 20260507175012 | 15 | 54 | 4.8 | 8.0 | 0.00 | 0.00 | 0.00 | 39 | 1018.3 |
| 20260507174528 | 15 | 44 | 3.2 | 8.0 | 0.00 | 0.00 | 0.00 | 40 | 1018.2 |
| 20260507174009 | 15 | 98 | 3.2 | 11.3 | 0.00 | 0.00 | 0.00 | 42 | 1018.4 |
| 20260507173514 | 15 | 69 | 4.8 | 11.3 | 0.00 | 0.00 | 0.00 | 41 | 1018.3 |
| 20260507173032 | 15 | 38 | 6.4 | 11.3 | 0.00 | 0.00 | 0.00 | 41 | 1018.3 |
| 20260507172513 | 15 | 58 | 4.8 | 16.1 | 0.00 | 0.00 | 0.00 | 45 | 1018.2 |
| 20260507172012 | 14 | 51 | 6.4 | 16.1 | 0.00 | 0.00 | 0.00 | 45 | 1018.3 |
| 20260507171529 | 14 | 79 | 6.4 | 11.3 | 0.00 | 0.00 | 0.00 | 45 | 1018.4 |
| 20260507171014 | 14 | 33 | 3.2 | 9.7 | 0.00 | 0.00 | 0.00 | 47 | 1018.4 |
| 20260507170511 | 13 | 68 | 3.2 | 8.0 | 0.00 | 0.00 | 0.00 | 51 | 1018.5 |
| 20260507170030 | 13 | 77 | 1.6 | 9.7 | 0.00 | 0.00 | 0.00 | 49 | 1018.4 |
| 20260507165512 | 13 | 68 | 3.2 | 9.7 | 0.00 | 0.00 | 0.00 | 53 | 1018.5 |
| 20260507165012 | 13 | 86 | 4.8 | 9.7 | 0.00 | 0.00 | 0.00 | 53 | 1018.4 |
| 20260507164534 | 13 | 71 | 3.2 | 8.0 | 0.00 | 0.00 | 0.00 | 57 | 1018.4 |
| 20260507164013 | 12 | 57 | 1.6 | 6.4 | 0.00 | 0.00 | 0.00 | 59 | 1018.4 |
| 20260507163514 | 12 | 77 | 1.6 | 4.8 | 0.00 | 0.00 | 0.00 | 62 | 1018.5 |
| 20260507163030 | 12 | 53 | 1.6 | 4.8 | 0.00 | 0.00 | 0.00 | 63 | 1018.4 |
| 20260507162512 | 12 | 29 | 1.6 | 6.4 | 0.00 | 0.00 | 0.00 | 63 | 1018.5 |
| 20260507162011 | 12 | 72 | 1.6 | 6.4 | 0.00 | 0.00 | 0.00 | 60 | 1018.5 |
| 20260507161530 | 12 | 78 | 0.0 | 6.4 | 0.00 | 0.00 | 0.00 | 63 | 1018.6 |
| 20260507161013 | 12 | 0 | 1.6 | 6.4 | 0.00 | 0.00 | 0.00 | 62 | 1018.5 |
| 20260507160511 | 12 | 36 | 0.0 | 4.8 | 0.00 | 0.00 | 0.00 | 64 | 1018.6 |
| 20260507160028 | 12 | 53 | 3.2 | 4.8 | 0.00 | 0.00 | 0.00 | 65 | 1018.6 |
| 20260507155512 | 12 | 49 | 1.6 | 3.2 | 0.00 | 0.00 | 0.00 | 65 | 1018.5 |
| 20260507155010 | 11 | 0 | 1.6 | 3.2 | 0.00 | 0.00 | 0.00 | 64 | 1018.5 |
| 20260507154531 | 12 | 61 | 1.6 | 3.2 | 0.00 | 0.00 | 0.00 | 66 | 1018.5 |
| 20260507154017 | 11 | 73 | 1.6 | 3.2 | 0.00 | 0.00 | 0.00 | 68 | 1018.5 |
| 20260507153512 | 11 | 353 | 0.0 | 4.8 | 0.00 | 0.00 | 0.00 | 68 | 1018.6 |
| 20260507153027 | 11 | 0 | 0.0 | 4.8 | 0.00 | 0.00 | 0.00 | 67 | 1018.6 |
| 20260507152513 | 11 | 82 | 1.6 | 4.8 | 0.00 | 0.00 | 0.00 | 68 | 1018.6 |
| 20260507152012 | 11 | 61 | 1.6 | 4.8 | 0.00 | 0.00 | 0.00 | 69 | 1018.6 |
| 20260507151528 | 11 | 93 | 1.6 | 3.2 | 0.00 | 0.00 | 0.00 | 70 | 1018.5 |
| 20260507151011 | 10 | 62 | 1.6 | 3.2 | 0.00 | 0.00 | 0.00 | 73 | 1018.5 |
| 20260507150513 | 10 | 72 | 1.6 | 4.8 | 0.00 | 0.00 | 0.00 | 74 | 1018.4 |
| 20260507150028 | 10 | 72 | 1.6 | 4.8 | 0.00 | 0.00 | 0.00 | 75 | 1018.3 |
| 20260507145516 | 10 | 71 | 1.6 | 4.8 | 0.00 | 0.00 | 0.00 | 75 | 1018.3 |
| 20260507145012 | 10 | 58 | 0.0 | 3.2 | 0.00 | 0.00 | 0.00 | 75 | 1018.2 |
| 20260507144533 | 10 | 68 | 1.6 | 3.2 | 0.00 | 0.00 | 0.00 | 75 | 1018.2 |
| 20260507144013 | 9 | 47 | 0.0 | 4.8 | 0.00 | 0.00 | 0.00 | 75 | 1018.3 |
| 20260507143512 | 9 | 61 | 1.6 | 4.8 | 0.00 | 0.00 | 0.00 | 76 | 1018.2 |
| 20260507143035 | 9 | 68 | 1.6 | 4.8 | 0.00 | 0.00 | 0.00 | 76 | 1018.2 |
| 20260507142512 | 9 | 72 | 0.0 | 3.2 | 0.00 | 0.00 | 0.00 | 77 | 1018.2 |
| 20260507142017 | 9 | 58 | 1.6 | 3.2 | 0.00 | 0.00 | 0.00 | 77 | 1018.1 |
| 20260507141531 | 9 | 29 | 1.6 | 3.2 | 0.00 | 0.00 | 0.00 | 76 | 1018.1 |
| 20260507141011 | 8 | 58 | 0.0 | 1.6 | 0.00 | 0.00 | 0.00 | 76 | 1018.1 |
| 20260507140513 | 8 | 68 | 0.0 | 3.2 | 0.00 | 0.00 | 0.00 | 76 | 1018.0 |
| 20260507140030 | 8 | 0 | 0.0 | 3.2 | 0.00 | 0.00 | 0.00 | 77 | 1018.1 |
| 20260507135513 | 8 | 83 | 0.0 | 3.2 | 0.00 | 0.00 | 0.00 | 78 | 1018.0 |
| 20260507135013 | 7 | 104 | 0.0 | 1.6 | 0.00 | 0.00 | 0.00 | 79 | 1018.1 |
| 20260507134532 | 7 | 35 | 0.0 | 1.6 | 0.00 | 0.00 | 0.00 | 80 | 1018.0 |
| 20260507134014 | 6 | 0 | 0.0 | 1.6 | 0.00 | 0.00 | 0.00 | 82 | 1018.0 |
| 20260507133514 | 6 | 19 | 0.0 | 1.6 | 0.00 | 0.00 | 0.00 | 83 | 1018.0 |
| 20260507133028 | 6 | 14 | 0.0 | 1.6 | 0.00 | 0.00 | 0.00 | 84 | 1018.0 |
| 20260507132512 | 6 | 0 | 0.0 | 1.6 | 0.00 | 0.00 | 0.00 | 83 | 1018.1 |
| 20260507132013 | 5 | 350 | 0.0 | 1.6 | 0.00 | 0.00 | 0.00 | 84 | 1018.0 |
| 20260507131534 | 5 | 0 | 0.0 | 1.6 | 0.00 | 0.00 | 0.00 | 84 | 1017.9 |
| 20260507131014 | 5 | 0 | 0.0 | 1.6 | 0.00 | 0.00 | 0.00 | 81 | 1017.9 |
| 20260507130509 | 5 | 0 | 0.0 | 1.6 | 0.00 | 0.00 | 0.00 | 79 | 1017.9 |
| 20260507130029 | 5 | 267 | 0.0 | 0.0 | 0.00 | 0.00 | 0.00 | 78 | 1017.9 |
| 20260507125514 | 5 | 0 | 0.0 | 1.6 | 0.00 | 0.00 | 0.00 | 79 | 1017.9 |
| 20260507125012 | 5 | 267 | 0.0 | 1.6 | 0.00 | 0.00 | 0.00 | 80 | 1017.9 |
| 20260507124532 | 5 | 0 | 0.0 | 1.6 | 0.00 | 0.00 | 0.00 | 84 | 1017.9 |
| 20260507124011 | 5 | 78 | 0.0 | 1.6 | 0.00 | 0.00 | 0.00 | 83 | 1017.9 |
| 20260507123515 | 5 | 274 | 0.0 | 1.6 | 0.00 | 0.00 | 0.00 | 80 | 1018.0 |
| 20260507123029 | 5 | 274 | 0.0 | 1.6 | 0.00 | 0.00 | 0.00 | 81 | 1018.0 |
| 20260507122515 | 5 | 0 | 0.0 | 1.6 | 0.00 | 0.00 | 0.00 | 79 | 1018.1 |
| 20260507122017 | 5 | 0 | 0.0 | 1.6 | 0.00 | 0.00 | 0.00 | 79 | 1018.0 |
| 20260507121531 | 6 | 274 | 0.0 | 1.6 | 0.00 | 0.00 | 0.00 | 79 | 1017.9 |
| 20260507121013 | 5 | 271 | 0.0 | 1.6 | 0.00 | 0.00 | 0.00 | 78 | 1017.9 |
| 20260507120512 | 5 | 321 | 0.0 | 1.6 | 0.00 | 0.00 | 0.00 | 79 | 1018.0 |
| 20260507120028 | 6 | 0 | 0.0 | 1.6 | 0.00 | 0.00 | 0.00 | 81 | 1017.8 |
| 20260507115510 | 6 | 221 | 0.0 | 1.6 | 0.00 | 0.00 | 0.00 | 78 | 1017.8 |
| 20260507115012 | 6 | 275 | 0.0 | 1.6 | 0.00 | 0.00 | 0.00 | 77 | 1017.9 |
| 20260507114532 | 6 | 0 | 0.0 | 1.6 | 0.00 | 0.00 | 0.00 | 77 | 1017.7 |
| 20260507114010 | 6 | 271 | 0.0 | 1.6 | 0.00 | 0.00 | 0.00 | 76 | 1017.7 |
| 20260507113515 | 6 | 0 | 0.0 | 1.6 | 0.00 | 0.00 | 0.00 | 76 | 1017.9 |
| 20260507113028 | 6 | 271 | 0.0 | 0.0 | 0.00 | 0.00 | 0.00 | 76 | 1017.8 |
| 20260507112518 | 6 | 271 | 0.0 | 0.0 | 0.00 | 0.00 | 0.00 | 76 | 1017.6 |
| 20260507112013 | 6 | 0 | 0.0 | 0.0 | 0.00 | 0.00 | 0.00 | 78 | 1017.6 |
| 20260507111531 | 6 | 0 | 0.0 | 0.0 | 0.00 | 0.00 | 0.00 | 81 | 1017.6 |
| 20260507111010 | 7 | 0 | 0.0 | 1.6 | 0.00 | 0.00 | 0.00 | 78 | 1017.6 |
| 20260507110512 | 7 | 0 | 0.0 | 1.6 | 0.00 | 0.00 | 0.00 | 77 | 1017.7 |
| 20260507110031 | 7 | 0 | 0.0 | 1.6 | 0.00 | 0.00 | 0.00 | 76 | 1017.8 |
| 20260507105512 | 7 | 271 | 0.0 | 1.6 | 0.00 | 0.00 | 0.00 | 75 | 1017.8 |
| 20260507105012 | 7 | 271 | 0.0 | 1.6 | 0.00 | 0.00 | 0.00 | 75 | 1017.8 |
| 20260507104531 | 7 | 271 | 0.0 | 1.6 | 0.00 | 0.00 | 0.00 | 75 | 1017.6 |
| 20260507103512 | 7 | 0 | 0.0 | 0.0 | 0.00 | 0.00 | 0.00 | 77 | 1017.5 |
| 20260507102509 | 7 | 0 | 0.0 | 0.0 | 0.00 | 0.00 | 0.00 | 76 | 1017.6 |
| 20260507102013 | 7 | 0 | 0.0 | 0.0 | 0.00 | 0.00 | 0.00 | 76 | 1017.6 |
| 20260507101015 | 7 | 0 | 0.0 | 0.0 | 0.00 | 0.00 | 0.00 | 76 | 1017.6 |
| 20260507100512 | 7 | 0 | 0.0 | 0.0 | 0.00 | 0.00 | 0.00 | 76 | 1017.6 |
| 20260507100034 | 8 | 0 | 0.0 | 0.0 | 0.00 | 0.00 | 0.00 | 76 | 1017.7 |
| 20260507095510 | 8 | 0 | 0.0 | 0.0 | 0.00 | 0.00 | 0.00 | 73 | 1017.9 |
| 20260507095013 | 8 | 0 | 0.0 | 0.0 | 0.00 | 0.00 | 0.00 | 74 | 1017.9 |
| 20260507094531 | 8 | 0 | 0.0 | 0.0 | 0.00 | 0.00 | 0.00 | 74 | 1018.0 |
| 20260507094012 | 8 | 0 | 0.0 | 1.6 | 0.00 | 0.00 | 0.00 | 73 | 1017.9 |
| 20260507093515 | 8 | 0 | 0.0 | 1.6 | 0.00 | 0.00 | 0.00 | 73 | 1017.9 |
| 20260507093030 | 8 | 271 | 0.0 | 1.6 | 0.00 | 0.00 | 0.00 | 73 | 1017.9 |
| 20260507092509 | 8 | 271 | 0.0 | 1.6 | 0.00 | 0.00 | 0.00 | 72 | 1017.9 |
| 20260507092009 | 8 | 0 | 0.0 | 1.6 | 0.00 | 0.00 | 0.00 | 72 | 1017.9 |
| 20260507091013 | 8 | 0 | 0.0 | 1.6 | 0.00 | 0.00 | 0.00 | 73 | 1017.9 |
| 20260507090514 | 8 | 0 | 0.0 | 1.6 | 0.00 | 0.00 | 0.00 | 76 | 1018.0 |
| 20260507085513 | 8 | 0 | 0.0 | 0.0 | 0.00 | 0.00 | 0.00 | 72 | 1017.9 |
| 20260507085013 | 8 | 0 | 0.0 | 0.0 | 0.00 | 0.00 | 0.00 | 72 | 1017.8 |
| 20260507084532 | 8 | 271 | 0.0 | 1.6 | 0.00 | 0.00 | 0.00 | 72 | 1017.9 |
| 20260507084010 | 8 | 271 | 0.0 | 1.6 | 0.00 | 0.00 | 0.00 | 71 | 1018.1 |
| 20260507083512 | 8 | 271 | 1.6 | 1.6 | 0.00 | 0.00 | 0.00 | 71 | 1018.1 |
| 20260507083032 | 8 | 0 | 0.0 | 1.6 | 0.00 | 0.00 | 0.00 | 73 | 1018.1 |
| 20260507082510 | 8 | 271 | 0.0 | 1.6 | 0.00 | 0.00 | 0.00 | 71 | 1018.0 |
| 20260507082010 | 8 | 0 | 0.0 | 1.6 | 0.00 | 0.00 | 0.00 | 72 | 1018.0 |
| 20260507081530 | 8 | 0 | 0.0 | 1.6 | 0.00 | 0.00 | 0.00 | 72 | 1018.2 |
| 20260507081010 | 8 | 271 | 0.0 | 1.6 | 0.00 | 0.00 | 0.00 | 72 | 1018.2 |
| 20260507080511 | 8 | 0 | 0.0 | 0.0 | 0.00 | 0.00 | 0.00 | 72 | 1018.3 |
| 20260507080029 | 8 | 0 | 0.0 | 0.0 | 0.00 | 0.00 | 0.00 | 72 | 1018.3 |
| 20260507075517 | 8 | 0 | 0.0 | 1.6 | 0.00 | 0.00 | 0.00 | 71 | 1018.2 |
| 20260507075014 | 8 | 0 | 0.0 | 1.6 | 0.00 | 0.00 | 0.00 | 71 | 1018.0 |
| 20260507074528 | 8 | 271 | 0.0 | 1.6 | 0.00 | 0.00 | 0.00 | 70 | 1017.9 |
| 20260507074012 | 8 | 271 | 0.0 | 1.6 | 0.00 | 0.00 | 0.00 | 70 | 1018.0 |
| 20260507073511 | 8 | 271 | 0.0 | 1.6 | 0.00 | 0.00 | 0.00 | 70 | 1018.0 |
| 20260507073031 | 8 | 271 | 1.6 | 1.6 | 0.00 | 0.00 | 0.00 | 70 | 1018.1 |
| 20260507072516 | 8 | 271 | 1.6 | 1.6 | 0.00 | 0.00 | 0.00 | 69 | 1018.1 |
| 20260507072012 | 8 | 0 | 0.0 | 1.6 | 0.00 | 0.00 | 0.00 | 70 | 1018.1 |
| 20260507071528 | 8 | 0 | 0.0 | 1.6 | 0.00 | 0.00 | 0.00 | 69 | 1018.1 |
| 20260507071014 | 9 | 271 | 0.0 | 1.6 | 0.00 | 0.00 | 0.00 | 69 | 1018.2 |
| 20260507070512 | 9 | 271 | 0.0 | 1.6 | 0.00 | 0.00 | 0.00 | 69 | 1018.3 |
| 20260507070031 | 9 | 271 | 0.0 | 1.6 | 0.00 | 0.00 | 0.00 | 68 | 1018.3 |
| 20260507065511 | 9 | 0 | 0.0 | 1.6 | 0.00 | 0.00 | 0.00 | 68 | 1018.3 |
| 20260507065010 | 9 | 271 | 0.0 | 1.6 | 0.00 | 0.00 | 0.00 | 68 | 1018.4 |
| 20260507064527 | 9 | 0 | 0.0 | 1.6 | 0.00 | 0.00 | 0.00 | 68 | 1018.4 |
| 20260507064011 | 9 | 0 | 0.0 | 1.6 | 0.00 | 0.00 | 0.00 | 68 | 1018.4 |
| 20260507063514 | 10 | 271 | 0.0 | 1.6 | 0.00 | 0.00 | 0.00 | 67 | 1018.4 |
| 20260507063026 | 10 | 271 | 1.6 | 1.6 | 0.00 | 0.00 | 0.00 | 67 | 1018.3 |
| 20260507062510 | 10 | 271 | 1.6 | 1.6 | 0.00 | 0.00 | 0.00 | 67 | 1018.4 |
| 20260507062012 | 10 | 271 | 0.0 | 1.6 | 0.00 | 0.00 | 0.00 | 67 | 1018.5 |
| 20260507061531 | 10 | 271 | 0.0 | 1.6 | 0.00 | 0.00 | 0.00 | 68 | 1018.6 |
| 20260507061014 | 10 | 271 | 0.0 | 1.6 | 0.00 | 0.00 | 0.00 | 68 | 1018.6 |
| 20260507060513 | 10 | 271 | 0.0 | 1.6 | 0.00 | 0.00 | 0.00 | 68 | 1018.5 |
| 20260507060030 | 10 | 271 | 0.0 | 1.6 | 0.00 | 0.00 | 0.00 | 68 | 1018.6 |
| 20260507055510 | 10 | 271 | 0.0 | 1.6 | 0.00 | 0.00 | 0.00 | 68 | 1018.5 |
| 20260507055014 | 10 | 271 | 0.0 | 1.6 | 0.00 | 0.00 | 0.00 | 68 | 1018.6 |
| 20260507054535 | 10 | 271 | 0.0 | 1.6 | 0.00 | 0.00 | 0.00 | 67 | 1018.6 |
| 20260507054016 | 10 | 271 | 0.0 | 1.6 | 0.00 | 0.00 | 0.00 | 67 | 1018.6 |
| 20260507053512 | 10 | 270 | 0.0 | 1.6 | 0.00 | 0.00 | 0.00 | 67 | 1018.6 |
| 20260507053030 | 10 | 270 | 1.6 | 1.6 | 0.00 | 0.00 | 0.00 | 67 | 1018.6 |
| 20260507052509 | 10 | 270 | 0.0 | 1.6 | 0.00 | 0.00 | 0.00 | 67 | 1018.6 |
| 20260507052013 | 10 | 0 | 0.0 | 1.6 | 0.00 | 0.00 | 0.00 | 67 | 1018.7 |
| 20260507051531 | 10 | 270 | 0.0 | 1.6 | 0.00 | 0.00 | 0.00 | 67 | 1018.7 |
| 20260507051011 | 10 | 270 | 1.6 | 1.6 | 0.00 | 0.00 | 0.00 | 67 | 1018.7 |
| 20260507050510 | 10 | 0 | 0.0 | 1.6 | 0.00 | 0.00 | 0.00 | 67 | 1018.9 |
| 20260507050029 | 10 | 0 | 0.0 | 1.6 | 0.00 | 0.00 | 0.00 | 66 | 1018.9 |
| 20260507045513 | 10 | 271 | 1.6 | 1.6 | 0.00 | 0.00 | 0.00 | 66 | 1018.8 |
| 20260507045012 | 10 | 265 | 0.0 | 1.6 | 0.00 | 0.00 | 0.00 | 66 | 1018.6 |
| 20260507044530 | 10 | 269 | 0.0 | 1.6 | 0.00 | 0.00 | 0.00 | 66 | 1018.6 |
| 20260507044012 | 10 | 269 | 0.0 | 1.6 | 0.00 | 0.00 | 0.00 | 66 | 1018.6 |
| 20260507043513 | 10 | 267 | 1.6 | 1.6 | 0.00 | 0.00 | 0.00 | 65 | 1018.6 |
| 20260507043027 | 10 | 270 | 0.0 | 1.6 | 0.00 | 0.00 | 0.00 | 66 | 1018.6 |
| 20260507042510 | 10 | 269 | 0.0 | 1.6 | 0.00 | 0.00 | 0.00 | 65 | 1018.6 |
| 20260507042012 | 10 | 264 | 0.0 | 1.6 | 0.00 | 0.00 | 0.00 | 66 | 1018.6 |
| 20260507041528 | 10 | 263 | 1.6 | 3.2 | 0.00 | 0.00 | 0.00 | 65 | 1018.5 |
| 20260507041013 | 10 | 269 | 0.0 | 3.2 | 0.00 | 0.00 | 0.00 | 65 | 1018.5 |
| 20260507040512 | 10 | 273 | 1.6 | 3.2 | 0.00 | 0.00 | 0.00 | 65 | 1018.5 |
| 20260507040026 | 11 | 273 | 0.0 | 1.6 | 0.00 | 0.00 | 0.00 | 65 | 1018.5 |
| 20260507035512 | 10 | 259 | 0.0 | 1.6 | 0.00 | 0.00 | 0.00 | 65 | 1018.5 |
| 20260507035014 | 10 | 272 | 0.0 | 1.6 | 0.00 | 0.00 | 0.00 | 65 | 1018.5 |
| 20260507034530 | 10 | 272 | 0.0 | 1.6 | 0.00 | 0.00 | 0.00 | 65 | 1018.5 |
| 20260507034010 | 11 | 272 | 0.0 | 3.2 | 0.00 | 0.00 | 0.00 | 64 | 1018.4 |
| 20260507033514 | 11 | 0 | 0.0 | 3.2 | 0.00 | 0.00 | 0.00 | 65 | 1018.4 |
| 20260507033030 | 11 | 262 | 1.6 | 3.2 | 0.00 | 0.00 | 0.00 | 64 | 1018.2 |
| 20260507032512 | 11 | 266 | 0.0 | 1.6 | 0.00 | 0.00 | 0.00 | 64 | 1018.2 |
| 20260507032015 | 11 | 265 | 0.0 | 1.6 | 0.00 | 0.00 | 0.00 | 64 | 1018.2 |
| 20260507031530 | 11 | 270 | 0.0 | 1.6 | 0.00 | 0.00 | 0.00 | 64 | 1018.2 |
| 20260507031012 | 11 | 271 | 0.0 | 1.6 | 0.00 | 0.00 | 0.00 | 63 | 1018.2 |
| 20260507030512 | 11 | 271 | 1.6 | 3.2 | 0.00 | 0.00 | 0.00 | 62 | 1018.2 |
| 20260507030031 | 12 | 269 | 1.6 | 3.2 | 0.00 | 0.00 | 0.00 | 62 | 1018.2 |
| 20260507025512 | 12 | 265 | 1.6 | 1.6 | 0.00 | 0.00 | 0.00 | 62 | 1018.3 |
| 20260507025012 | 12 | 267 | 1.6 | 1.6 | 0.00 | 0.00 | 0.00 | 62 | 1018.3 |
| 20260507024528 | 12 | 267 | 0.0 | 1.6 | 0.00 | 0.00 | 0.00 | 61 | 1018.3 |
| 20260507024015 | 12 | 267 | 1.6 | 1.6 | 0.00 | 0.00 | 0.00 | 60 | 1018.3 |
| 20260507023512 | 13 | 263 | 1.6 | 1.6 | 0.00 | 0.00 | 0.00 | 62 | 1018.3 |
| 20260507023026 | 13 | 263 | 1.6 | 1.6 | 0.00 | 0.00 | 0.00 | 61 | 1018.4 |
| 20260507022510 | 13 | 262 | 0.0 | 1.6 | 0.00 | 0.00 | 0.00 | 61 | 1018.3 |
| 20260507022011 | 13 | 250 | 0.0 | 1.6 | 0.00 | 0.00 | 0.00 | 60 | 1018.3 |
| 20260507021530 | 14 | 250 | 0.0 | 1.6 | 0.00 | 0.00 | 0.00 | 59 | 1018.3 |
| 20260507021012 | 14 | 250 | 0.0 | 1.6 | 0.00 | 0.00 | 0.00 | 57 | 1018.2 |
| 20260507020512 | 15 | 0 | 0.0 | 1.6 | 0.00 | 0.00 | 0.00 | 57 | 1018.1 |
| 20260507020036 | 15 | 0 | 0.0 | 1.6 | 0.00 | 0.00 | 0.00 | 53 | 1018.0 |
| 20260507015512 | 15 | 0 | 0.0 | 3.2 | 0.00 | 0.00 | 0.00 | 52 | 1018.0 |
| 20260507015012 | 15 | 0 | 0.0 | 3.2 | 0.00 | 0.00 | 0.00 | 51 | 1017.9 |
| 20260507014531 | 15 | 0 | 0.0 | 1.6 | 0.00 | 0.00 | 0.00 | 53 | 1017.9 |
| 20260507014012 | 16 | 0 | 0.0 | 4.8 | 0.00 | 0.00 | 0.00 | 48 | 1018.0 |
| 20260507013512 | 16 | 0 | 0.0 | 4.8 | 0.00 | 0.00 | 0.00 | 48 | 1017.9 |
| 20260507013042 | 16 | 0 | 1.6 | 4.8 | 0.00 | 0.00 | 0.00 | 47 | 1017.9 |
| 20260507012010 | 16 | 0 | 0.0 | 4.8 | 0.00 | 0.00 | 0.00 | 46 | 1018.0 |
| 20260507011532 | 16 | 146 | 0.0 | 3.2 | 0.00 | 0.00 | 0.00 | 48 | 1018.2 |
| 20260507011012 | 16 | 0 | 0.0 | 3.2 | 0.00 | 0.00 | 0.00 | 46 | 1018.3 |
| 20260507010512 | 16 | 0 | 0.0 | 4.8 | 0.00 | 0.00 | 0.00 | 45 | 1018.2 |
| 20260507010035 | 16 | 358 | 0.0 | 4.8 | 0.00 | 0.00 | 0.00 | 48 | 1018.3 |
| 20260507005513 | 16 | 0 | 0.0 | 4.8 | 0.00 | 0.00 | 0.00 | 44 | 1018.2 |
| 20260507005012 | 16 | 253 | 0.0 | 3.2 | 0.00 | 0.00 | 0.00 | 44 | 1018.4 |
| 20260507004529 | 17 | 146 | 0.0 | 4.8 | 0.00 | 0.00 | 0.00 | 45 | 1018.3 |
| 20260507004011 | 17 | 75 | 0.0 | 4.8 | 0.00 | 0.00 | 0.00 | 43 | 1018.4 |
| 20260507003511 | 17 | 150 | 0.0 | 4.8 | 0.00 | 0.00 | 0.00 | 43 | 1018.4 |
| 20260507003038 | 17 | 321 | 1.6 | 6.4 | 0.00 | 0.00 | 0.00 | 43 | 1018.4 |
| 20260507002515 | 17 | 0 | 0.0 | 6.4 | 0.00 | 0.00 | 0.00 | 43 | 1018.4 |
| 20260507001533 | 17 | 77 | 1.6 | 6.4 | 0.00 | 0.00 | 0.00 | 43 | 1018.5 |
| 20260507001010 | 17 | 326 | 0.0 | 4.8 | 0.00 | 0.00 | 0.00 | 43 | 1018.6 |
| 20260507000512 | 17 | 84 | 0.0 | 8.0 | 0.00 | 0.00 | 0.00 | 43 | 1018.6 |
| 20260507000033 | 17 | 324 | 1.6 | 9.7 | 0.00 | 0.00 | 0.00 | 41 | 1018.6 |
| 20260506235509 | 17 | 52 | 0.0 | 9.7 | 0.00 | 0.00 | 0.00 | 43 | 1018.6 |
| 20260506235009 | 17 | 353 | 1.6 | 9.7 | 0.00 | 0.00 | 0.00 | 41 | 1018.6 |
| 20260506234528 | 17 | 0 | 0.0 | 9.7 | 0.00 | 0.00 | 0.00 | 42 | 1018.6 |
| 20260506234012 | 17 | 28 | 1.6 | 12.9 | 0.00 | 0.00 | 0.00 | 41 | 1018.6 |
| 20260506233510 | 17 | 6 | 3.2 | 12.9 | 0.00 | 0.00 | 0.00 | 41 | 1018.7 |
| 20260506233028 | 17 | 57 | 1.6 | 22.5 | 0.00 | 0.00 | 0.00 | 40 | 1018.7 |
| 20260506232511 | 17 | 19 | 6.4 | 22.5 | 0.00 | 0.00 | 0.00 | 40 | 1018.9 |
| 20260506231528 | 17 | 290 | 1.6 | 19.3 | 0.00 | 0.00 | 0.00 | 39 | 1018.6 |
| 20260506231011 | 18 | 39 | 3.2 | 19.3 | 0.00 | 0.00 | 0.00 | 39 | 1018.5 |